[[{"header":{"parameterUnit":"m.s-1","parameterCategory":1,"la1":30.2991,"la2":30.254,"lo1":-89.0895,"lo2":-89.0444,"dy":0.0017,"dx":0.0017,"nx":28,"ny":28,"refTime":"2024-08-11T03:00:00:Z","depth":0,"parameterNumber":2,"parameterNumberName":"U-component_of_WINDS"},"data":[0,0,0,0,0,0,0,0,0,0,0,0,0,0,0,0,0,0,0,0,0,0,0,0,0,0,0,0,0,0,0,0,0,0,0,0,0,0,0,0,0,0,0,0,0,0,0,0,0,0,0,0,0,0,0,0,0,0,1.5922,1.5922,0,1.5924,1.5924,1.5924,1.589,1.5889,1.5888,1.5887,1.589,1.5891,1.5892,0,0,0,0,0,0,0,0,0,0,0,0,0,1.589,1.5891,1.5922,1.5922,1.5922,1.5924,1.5924,1.5924,1.589,1.5889,1.5888,1.5887,1.589,1.5891,1.5892,0,0,0,0,0,0,0,0,0,0,0,0,0,1.59,1.5891,1.5922,1.5906,1.5904,1.5924,1.5924,1.5924,1.5891,1.5889,1.5888,1.5886,1.5889,1.5891,1.5892,1.5929,0,0,1.5896,1.5897,0,0,0,0,0,0,0,0,1.5899,1.5901,1.5908,1.5907,1.5905,1.5906,1.5914,1.5926,1.5891,1.5896,1.5887,1.5886,1.5896,1.5897,1.5901,1.5929,1.5929,1.5896,1.5897,1.5898,1.5898,0,0,0,0,0,0,0,1.5898,1.59,1.5923,1.5908,1.5906,1.5898,1.5898,1.5916,1.5904,1.5895,1.5893,1.5893,1.5895,1.5899,1.59,1.5929,1.5896,1.5898,1.5899,1.5899,1.5989,1.599,0,0,0,0,0,0,1.59,1.59,1.5923,1.5923,1.5899,1.59,1.59,1.5907,1.5904,1.5902,1.5895,1.5892,1.5898,1.5899,1.59,1.5944,1.5898,1.5899,1.59,1.5987,1.5989,1.5991,0,0,0,0,0,0,1.5899,1.5902,1.5923,1.5911,1.5913,1.5902,1.591,1.5908,1.5911,1.5903,1.5901,1.5901,1.5896,1.5898,1.5922,1.5943,1.59,1.5901,1.5985,1.5988,1.599,1.603,0,0,0,0,0,0,1.5899,1.5902,1.5916,1.5912,1.5914,1.5944,1.5912,1.5909,1.5914,1.591,1.5908,1.5907,1.5896,1.592,1.5924,1.5944,1.5902,1.5983,1.5986,1.5989,1.6027,1.6034,1.604,0,0,0,0,0,1.5898,1.5927,1.5916,1.5919,1.593,1.5946,1.5947,1.5933,1.5916,1.5929,1.5924,1.5907,1.5941,1.5923,1.5926,1.5948,1.5982,1.5986,1.5989,1.6024,1.6032,1.6039,0,0,0,0,0,0,1.5933,1.5926,1.5914,1.5943,1.5945,1.594,1.5956,1.5942,1.595,1.5946,1.5929,1.5929,1.5956,1.5954,1.5935,1.5984,1.5958,1.5963,1.5984,1.5992,1.5998,1.5998,1.5903,0,0,0,0,0,1.5945,1.5957,1.595,1.5976,1.5978,1.5967,1.5974,1.5963,1.5965,1.5966,1.5962,1.5965,1.5976,1.5984,1.5994,1.6027,1.6026,1.6044,1.605,1.6055,1.6059,1.6078,1.6085,1.6002,1.6002,1.6002,0,0,1.5968,1.5965,1.5974,1.5983,1.5984,1.5998,1.5968,1.5984,1.5995,1.5968,1.599,1.5988,1.599,1.6019,1.6032,1.6019,1.6082,1.6059,1.6064,1.6065,1.6082,1.609,1.6097,1.6005,1.6004,1.6004,0,0,1.6017,1.6017,1.6039,1.604,1.6041,1.6034,1.604,1.6037,1.6035,1.6057,1.6037,1.605,1.607,1.6072,1.6076,1.6129,1.6113,1.6132,1.6165,1.6183,1.619,1.6195,1.6215,1.6222,1.6136,1.6136,1.6136,0,1.6046,1.6066,1.6052,1.607,1.6075,1.6051,1.6074,1.6076,1.6081,1.6085,1.6071,1.6096,1.6095,1.6125,1.6138,1.6142,1.6148,1.6132,1.619,1.6195,1.6201,1.6219,1.6226,1.6139,1.6138,1.6138,1.6138,0,1.6102,1.6117,1.6135,1.614,1.6147,1.6167,1.6156,1.6165,1.6155,1.615,1.6173,1.6172,1.6182,1.6188,1.6178,1.6217,1.6209,1.6193,1.6166,1.6211,1.6228,1.6235,1.6142,1.6141,1.6141,1.614,0,0,1.6173,1.6171,1.6178,1.6181,1.6182,1.6193,1.6213,1.6222,1.6231,1.6235,1.6252,1.627,1.6255,1.6259,1.6249,1.6265,1.6308,1.6247,1.6246,1.6259,1.6353,1.6365,1.6374,1.6298,1.6299,1.63,1.6353,0,1.6222,1.6255,1.6243,1.6278,1.6292,1.6271,1.6288,1.6291,1.6287,1.6298,1.6294,1.6307,1.6286,1.6289,1.6304,1.63,1.6327,1.6296,1.6314,1.6315,1.6314,1.6383,1.6396,1.6445,1.6359,1.636,1.6361,0,1.6283,1.629,1.6326,1.6326,1.6331,1.6347,1.6356,1.6367,1.637,1.6366,1.6372,1.6359,1.6379,1.6353,1.6381,1.636,1.6367,1.6367,1.6368,1.6369,1.6341,1.6386,1.646,1.6468,1.6371,1.637,1.637,0,1.6332,1.6351,1.6375,1.6378,1.6378,1.639,1.639,1.6392,1.6399,1.6407,1.6412,1.6422,1.6427,1.6436,1.6426,1.6408,1.6456,1.6429,1.6454,1.6454,1.6465,1.6464,1.6542,1.6469,1.6469,1.6469,1.6469,0,1.6388,1.6411,1.6397,1.6412,1.6438,1.6425,1.645,1.6448,1.6451,1.6465,1.6448,1.6462,1.6448,1.6462,1.6454,1.6479,1.6482,1.6479,1.6477,1.6481,1.6482,1.6485,1.6482,1.6471,1.647,1.647,1.647,0,1.6447,1.6439,1.6464,1.6462,1.6462,1.6481,1.648,1.6494,1.6489,1.6508,1.6512,1.6505,1.652,1.6511,1.6526,1.6521,1.6554,1.6547,1.6553,1.6551,1.6577,1.6575,1.666,1.667,1.659,1.6591,1.6592,0,1.6483,1.65,1.6501,1.6509,1.6511,1.6525,1.6533,1.6521,1.6529,1.6535,1.6549,1.6562,1.6572,1.6597,1.6594,1.6605,1.6599,1.6628,1.66,1.6604,1.66,1.6599,1.6601,1.6633,1.6634,1.6635,1.6636,0,1.6548,1.6544,1.6555,1.6566,1.6575,1.6583,1.6589,1.6597,1.6585,1.6596,1.6611,1.6619,1.6635,1.6649,1.6659,1.666,1.6647,1.6644,1.6651,1.6655,1.6658,1.6658,1.6568,1.6642,1.6642,1.6641,1.6641,1.6641,1.6597,1.6612,1.6615,1.6629,1.6633,1.6639,1.6653,1.665,1.6662,1.6675,1.6667,1.6685,1.6689,1.6702,1.6705,1.6719,1.6707,1.6717,1.6719,1.6722,1.6726,1.6656,1.6721,1.6721,1.672,1.672,1.672,0,1.6663,1.6664,1.6677,1.6686,1.6697,1.6683,1.669,1.67,1.6716,1.6721,1.6732,1.675,1.6764,1.6762,1.6774,1.6786,1.6781,1.679,1.6789,1.679,1.6735,1.6728,1.6795,1.6795,1.6795,1.6795,1.6795,1.6795,1.6698,1.6723,1.6719,1.6746,1.6747,1.6765,1.677,1.6776,1.678,1.6801,1.6812,1.6811,1.6814,1.6826,1.6839,1.6838,1.6844,1.6856,1.6853,1.6801,1.6794,1.6787,1.6781,1.6857,1.6857,1.6907,1.6907,1.6908]},{"header":{"parameterUnit":"m.s-1","parameterCategory":1,"la1":30.2991,"la2":30.254,"lo1":-89.0895,"lo2":-89.0444,"dy":0.0017,"dx":0.0017,"nx":28,"ny":28,"refTime":"2024-08-11T03:00:00:Z","depth":0,"parameterNumber":3,"parameterNumberName":"V-component_of_WINDS"},"data":[0,0,0,0,0,0,0,0,0,0,0,0,0,0,0,0,0,0,0,0,0,0,0,0,0,0,0,0,0,0,0,0,0,0,0,0,0,0,0,0,0,0,0,0,0,0,0,0,0,0,0,0,0,0,0,0,0,0,-0.2692,-0.2692,0,-0.2702,-0.2702,-0.2702,-0.2692,-0.2692,-0.2691,-0.2691,-0.2701,-0.2702,-0.2702,0,0,0,0,0,0,0,0,0,0,0,0,0,-0.2667,-0.2667,-0.2692,-0.2692,-0.2692,-0.2702,-0.2702,-0.2702,-0.2692,-0.2692,-0.2691,-0.2691,-0.2701,-0.2702,-0.2702,0,0,0,0,0,0,0,0,0,0,0,0,0,-0.2677,-0.2667,-0.2692,-0.2689,-0.2688,-0.2702,-0.2702,-0.2702,-0.2692,-0.2692,-0.2691,-0.2691,-0.2701,-0.2701,-0.2702,-0.272,0,0,-0.2705,-0.2706,0,0,0,0,0,0,0,0,-0.2677,-0.2678,-0.2689,-0.2689,-0.2689,-0.2695,-0.2697,-0.2708,-0.2692,-0.2691,-0.2691,-0.269,-0.27,-0.2701,-0.2704,-0.2721,-0.2721,-0.2705,-0.2706,-0.2706,-0.2707,0,0,0,0,0,0,0,-0.2676,-0.2678,-0.2696,-0.2689,-0.2689,-0.2687,-0.2688,-0.2699,-0.2698,-0.2691,-0.269,-0.2692,-0.2699,-0.2703,-0.2704,-0.2721,-0.2705,-0.2706,-0.2707,-0.2707,-0.2756,-0.2756,0,0,0,0,0,0,-0.2675,-0.2677,-0.2696,-0.2696,-0.2681,-0.2688,-0.2689,-0.2694,-0.2698,-0.2698,-0.2692,-0.2691,-0.2701,-0.2703,-0.2704,-0.2727,-0.2706,-0.2707,-0.2708,-0.2755,-0.2756,-0.2757,0,0,0,0,0,0,-0.2675,-0.2677,-0.2695,-0.2687,-0.2689,-0.2689,-0.2695,-0.2694,-0.2698,-0.2699,-0.2699,-0.2696,-0.2701,-0.2703,-0.2717,-0.2727,-0.2708,-0.2709,-0.2754,-0.2755,-0.2756,-0.2771,0,0,0,0,0,0,-0.2674,-0.2677,-0.2683,-0.2687,-0.2689,-0.2707,-0.2695,-0.2695,-0.2699,-0.2698,-0.2702,-0.2702,-0.2701,-0.2715,-0.2718,-0.2728,-0.2709,-0.2753,-0.2755,-0.2756,-0.277,-0.2773,-0.2775,0,0,0,0,0,-0.2673,-0.2686,-0.2683,-0.2686,-0.2697,-0.2708,-0.2709,-0.2707,-0.27,-0.2707,-0.2708,-0.2702,-0.2726,-0.2717,-0.2719,-0.273,-0.2753,-0.2754,-0.2756,-0.2769,-0.2772,-0.2775,0,0,0,0,0,0,-0.2683,-0.2687,-0.2683,-0.2698,-0.2703,-0.2706,-0.2714,-0.271,-0.2717,-0.2716,-0.2713,-0.2714,-0.2729,-0.2731,-0.2721,-0.2749,-0.2738,-0.274,-0.2747,-0.275,-0.2753,-0.2753,-0.271,0,0,0,0,0,-0.2687,-0.2696,-0.2698,-0.2711,-0.2714,-0.2714,-0.2718,-0.2717,-0.2721,-0.2723,-0.2725,-0.273,-0.2739,-0.2745,-0.2753,-0.277,-0.2772,-0.2779,-0.2782,-0.2784,-0.2786,-0.2798,-0.2802,-0.2762,-0.2762,-0.2762,0,0,-0.2695,-0.2698,-0.2704,-0.2713,-0.2717,-0.2726,-0.2715,-0.2725,-0.2733,-0.2725,-0.2738,-0.274,-0.2746,-0.2763,-0.277,-0.2765,-0.2798,-0.2786,-0.2788,-0.2789,-0.28,-0.2804,-0.2807,-0.2763,-0.2763,-0.2763,0,0,-0.2715,-0.2718,-0.273,-0.2734,-0.274,-0.274,-0.2743,-0.2748,-0.2749,-0.2763,-0.2758,-0.2767,-0.2781,-0.2786,-0.279,-0.2815,-0.2811,-0.2818,-0.2832,-0.2843,-0.2846,-0.2849,-0.286,-0.2863,-0.282,-0.282,-0.282,0,-0.2725,-0.2739,-0.2736,-0.2748,-0.2753,-0.2747,-0.276,-0.2764,-0.2772,-0.2776,-0.277,-0.2789,-0.2792,-0.2811,-0.2818,-0.2821,-0.2825,-0.2817,-0.2846,-0.2849,-0.2851,-0.2861,-0.2865,-0.2821,-0.282,-0.282,-0.282,0,-0.2751,-0.2761,-0.277,-0.2779,-0.2785,-0.2797,-0.2797,-0.2804,-0.2802,-0.2804,-0.2819,-0.2823,-0.2833,-0.2837,-0.2834,-0.2856,-0.2853,-0.2846,-0.2836,-0.2856,-0.2866,-0.2869,-0.2822,-0.2822,-0.2821,-0.2821,0,0,-0.2776,-0.2786,-0.2789,-0.2794,-0.2801,-0.2809,-0.2821,-0.2831,-0.2838,-0.2844,-0.2856,-0.2869,-0.2864,-0.2869,-0.2868,-0.2878,-0.29,-0.287,-0.2871,-0.2877,-0.2926,-0.2931,-0.2936,-0.2897,-0.2897,-0.2898,-0.2926,0,-0.2798,-0.282,-0.2819,-0.2839,-0.285,-0.2845,-0.2856,-0.2863,-0.2865,-0.2874,-0.2877,-0.2887,-0.2879,-0.2882,-0.2892,-0.2895,-0.2909,-0.2893,-0.2908,-0.2909,-0.2908,-0.294,-0.2945,-0.2971,-0.2929,-0.293,-0.293,0,-0.2825,-0.2834,-0.2856,-0.2863,-0.2868,-0.2878,-0.2888,-0.2897,-0.2904,-0.2905,-0.2912,-0.291,-0.2924,-0.2913,-0.2933,-0.2922,-0.2928,-0.2931,-0.2932,-0.2934,-0.2921,-0.2944,-0.2979,-0.2984,-0.2936,-0.2935,-0.2935,0,-0.2844,-0.286,-0.2876,-0.288,-0.2889,-0.2897,-0.2901,-0.2908,-0.2915,-0.2924,-0.2929,-0.2939,-0.2945,-0.2954,-0.2955,-0.2947,-0.2976,-0.2965,-0.2979,-0.2979,-0.2985,-0.2985,-0.3023,-0.2988,-0.2988,-0.2988,-0.2988,0,-0.2868,-0.2882,-0.2885,-0.2895,-0.2911,-0.2911,-0.2927,-0.293,-0.2937,-0.2948,-0.2945,-0.2956,-0.2956,-0.2967,-0.2968,-0.2986,-0.2988,-0.2991,-0.2991,-0.2991,-0.2991,-0.2996,-0.2995,-0.2989,-0.2989,-0.2988,-0.2988,0,-0.2891,-0.2893,-0.2911,-0.2919,-0.2921,-0.2933,-0.294,-0.295,-0.2952,-0.2967,-0.297,-0.2974,-0.2988,-0.299,-0.3005,-0.3006,-0.3028,-0.3026,-0.3026,-0.3026,-0.304,-0.3039,-0.3084,-0.309,-0.3049,-0.305,-0.305,0,-0.2907,-0.2918,-0.2927,-0.2935,-0.294,-0.2952,-0.2959,-0.296,-0.2968,-0.2979,-0.2988,-0.3001,-0.3012,-0.3034,-0.3039,-0.3051,-0.305,-0.3065,-0.3052,-0.3053,-0.3052,-0.3052,-0.3054,-0.3068,-0.3068,-0.3068,-0.3069,0,-0.2935,-0.2937,-0.2947,-0.2959,-0.2969,-0.2978,-0.2987,-0.2993,-0.2996,-0.3005,-0.3019,-0.3028,-0.3045,-0.3058,-0.3071,-0.3076,-0.3074,-0.3073,-0.3077,-0.3078,-0.3078,-0.308,-0.3034,-0.3072,-0.3071,-0.3071,-0.3071,-0.3071,-0.2956,-0.2966,-0.2976,-0.2988,-0.2996,-0.3005,-0.3015,-0.302,-0.3032,-0.3046,-0.3046,-0.3062,-0.3071,-0.3088,-0.3094,-0.3108,-0.3103,-0.3109,-0.311,-0.3112,-0.3114,-0.3076,-0.311,-0.311,-0.311,-0.311,-0.311,0,-0.2986,-0.2992,-0.3004,-0.3017,-0.3028,-0.3024,-0.3035,-0.3044,-0.3058,-0.3068,-0.3079,-0.3096,-0.311,-0.3117,-0.3131,-0.3141,-0.314,-0.3144,-0.3144,-0.3146,-0.3117,-0.3112,-0.3145,-0.3145,-0.3145,-0.3145,-0.3145,-0.3145,-0.3002,-0.302,-0.3023,-0.3045,-0.3051,-0.3067,-0.3074,-0.3083,-0.309,-0.311,-0.3122,-0.3127,-0.3136,-0.3151,-0.3164,-0.3166,-0.3172,-0.3177,-0.3179,-0.3151,-0.3148,-0.3144,-0.314,-0.3178,-0.3178,-0.3207,-0.3207,-0.3207]}]]